Wind_Speed
3 3 8 8 8 6 3 1 1 1 1 1 1 0 1 1 1 2 2 2 3 2 1 3 6 5 2 4 6 4 2 3 3 3 2 3 20 28 21 21 23 21 22 20 19 17 14 14 12 12 11 11 11 10 10 10 9 9 10 10 9 9 9 8 7 6 6 6 6 6 6 6 7 8 10 12 12 12 13 13 13 13 13 13 13 13 14 14 16 16 17 20 20 19 20 20 20
5 7 9 7 5 2 0 0 1 1 1 2 1 0 1 0 2 3 2 2 3 1 2 3 5 4 3 6 7 4 4 4 2 3 3 14 24 21 21 23 23 22 22 20 19 17 15 14 12 12 11 11 10 10 10 10 10 9 9 9 9 8 8 9 8 7 6 7 7 7 7 7 8 8 10 11 12 12 12 13 13 12 12 13 12 13 14 13 16 17 18 20 20 20 22 21 19
8 10 10 6 2 1 0 0 2 1 2 2 1 1 1 2 3 3 1 2 2 1 4 4 5 3 3 4 3 2 2 4 5 6 6 18 18 15 23 23 22 23 21 21 19 18 16 14 13 12 11 10 10 10 10 10 10 9 9 9 8 8 8 8 7 7 6 7 7 7 7 7 8 9 10 11 11 11 11 12 12 12 12 12 12 13 14 13 15 18 18 18 20 23 24 22 20
10 9 7 4 1 1 0 1 1 1 2 1 1 1 2 3 4 3 3 3 1 1 3 4 4 1 2 4 2 3 3 3 5 7 7 12 15 21 25 23 23 23 21 20 19 18 16 14 13 12 11 10 9 9 9 9 9 9 8 8 8 8 8 8 7 6 6 7 7 7 8 8 9 10 10 10 10 10 11 12 12 12 12 11 12 14 14 13 14 16 18 18 20 22 22 22 20
9 7 3 2 1 0 0 1 0 1 2 1 2 2 3 3 4 3 3 3 2 1 1 3 3 1 1 4 1 2 4 5 5 7 10 12 20 26 25 24 24 23 22 20 19 18 15 14 13 12 11 10 9 9 9 8 8 8 7 7 8 8 8 8 7 6 6 6 7 7 8 9 9 9 10 10 10 10 10 11 12 11 12 12 12 14 14 14 14 16 17 18 19 20 20 20 19
8 6 2 0 0 1 0 0 1 0 1 2 2 2 4 3 3 3 3 1 1 3 3 2 5 4 2 3 3 2 4 6 6 9 14 18 25 27 25 26 25 24 22 20 19 17 15 13 13 12 10 10 9 8 8 8 7 7 7 7 7 7 8 8 7 7 6 6 7 7 8 10 9 8 9 10 10 9 9 10 11 11 12 12 12 13 14 14 15 16 17 17 18 19 19 19 18
7 4 1 1 0 1 0 0 1 1 0 1 2 4 5 5 3 4 3 1 1 2 1 4 8 8 4 3 4 3 6 8 8 12 19 25 27 27 26 26 25 24 22 21 19 16 15 13 13 11 10 9 8 8 8 7 7 7 7 7 7 7 8 8 8 8 7 7 7 7 9 12 10 7 9 11 10 9 10 11 11 11 12 13 13 13 14 15 16 17 17 16 16 18 19 18 17
6 2 0 1 0 1 0 1 1 1 1 1 1 2 6 6 5 5 4 2 2 2 5 8 7 7 4 4 3 3 9 10 11 18 26 28 28 27 26 25 25 23 22 21 18 16 15 13 12 10 10 9 8 8 8 7 6 6 7 6 7 7 8 8 9 8 7 6 6 6 9 13 10 6 8 10 11 10 10 11 12 12 12 13 13 14 14 15 16 17 16 15 15 16 17 17 17
3 1 0 1 0 1 1 2 1 0 1 1 1 2 4 5 5 5 4 2 4 6 8 7 4 6 6 7 5 4 11 15 20 24 27 28 28 27 25 25 24 24 22 20 18 17 15 13 12 10 9 9 9 9 8 8 7 7 7 7 7 7 8 8 8 7 7 6 6 6 8 14 11 6 6 9 11 11 10 11 13 13 12 13 13 14 15 15 16 16 15 15 15 15 15 16 16
1 1 0 1 0 1 1 2 1 1 2 1 1 2 3 2 4 3 3 5 7 6 7 6 6 8 9 8 4 4 12 21 25 24 26 27 26 26 25 23 24 24 23 20 19 17 15 13 12 11 9 9 9 8 8 8 7 8 8 9 7 7 8 8 8 7 6 6 6 6 8 14 13 7 6 9 11 10 11 12 13 14 13 14 14 15 15 15 15 15 15 15 15 14 14 15 16
1 0 1 1 1 1 1 1 1 2 2 1 2 2 1 1 1 1 4 7 7 8 10 9 9 11 10 6 3 8 18 22 23 24 25 25 24 25 24 23 23 23 22 21 19 18 16 13 12 10 9 9 9 8 8 7 7 8 9 10 8 7 8 8 8 7 6 6 6 6 9 13 14 10 7 8 10 10 11 13 13 14 15 15 15 15 16 16 15 15 16 15 13 13 13 15 16
1 1 2 1 0 1 2 1 1 4 5 3 4 2 1 1 2 1 8 8 8 12 10 6 8 10 9 4 3 12 19 18 21 24 24 23 23 24 24 23 23 22 22 21 19 18 16 14 12 10 9 9 9 8 8 7 8 8 9 10 9 8 8 8 8 7 7 6 6 6 8 12 14 13 10 9 10 11 12 13 14 14 14 15 16 16 16 16 16 16 15 13 13 13 13 14 14
1 1 3 0 1 2 1 1 2 5 4 3 4 3 2 1 1 1 6 10 10 11 7 6 8 7 7 4 5 10 14 17 22 23 22 23 23 23 23 23 23 22 22 21 20 17 15 14 12 11 10 10 9 8 8 8 9 9 9 9 9 9 8 8 8 7 7 7 7 6 7 10 14 16 14 11 11 12 14 14 14 14 14 15 16 16 15 15 16 15 13 12 13 13 13 13 12
2 1 3 1 1 1 2 1 2 4 3 3 3 3 4 2 0 1 5 11 7 6 7 8 9 9 8 6 6 6 11 20 22 21 22 22 22 22 23 23 23 23 22 22 19 17 16 14 12 11 11 11 9 9 8 8 9 10 9 9 9 8 9 9 8 7 7 7 7 6 7 9 11 14 16 15 12 12 13 14 14 15 15 14 15 16 15 14 14 13 13 13 13 13 13 12 11
4 0 2 0 2 0 2 1 2 4 3 4 3 2 4 2 1 1 3 7 4 5 10 9 6 7 8 9 8 9 16 25 23 22 23 21 22 22 23 23 23 23 22 21 18 16 16 14 13 12 12 11 10 9 9 8 9 9 9 9 9 9 9 9 8 8 8 7 7 7 8 9 10 11 13 15 14 13 13 14 15 15 15 14 15 15 14 13 12 12 13 13 13 13 12 12 11
3 1 2 1 1 1 1 2 2 4 3 6 5 4 5 1 1 2 1 1 6 7 7 6 4 4 8 6 9 17 25 27 24 25 24 22 21 21 22 22 22 22 21 20 18 16 16 15 14 13 12 12 11 10 9 8 9 9 9 9 9 9 9 8 9 8 9 8 7 8 9 9 10 10 11 13 14 14 14 14 14 15 15 14 14 14 13 13 12 12 13 13 13 13 12 12 10
2 2 0 2 2 1 2 2 2 3 4 7 7 6 7 2 1 1 2 0 8 7 4 3 1 7 9 8 16 25 28 27 26 26 23 22 21 20 20 20 21 20 19 19 18 17 16 16 15 14 13 12 11 11 10 9 9 10 10 9 8 9 9 8 8 8 9 8 7 8 9 9 10 10 11 11 13 13 14 15 14 14 14 14 13 12 12 12 12 12 12 12 12 11 11 10 9
2 1 1 2 2 1 2 1 3 5 6 9 9 7 8 6 2 1 1 4 7 7 6 5 7 10 12 16 24 27 27 26 27 26 23 21 20 19 18 19 21 20 20 19 18 18 17 16 16 15 14 13 12 11 11 9 9 10 10 9 9 9 9 8 8 8 9 7 7 8 8 9 10 10 11 11 12 12 12 14 14 14 13 13 12 11 11 11 12 12 12 11 11 10 9 9 8
2 1 0 3 2 2 2 4 7 5 7 9 8 6 6 6 4 2 4 6 8 8 7 8 12 12 15 21 25 26 26 24 25 24 22 20 19 19 18 19 20 20 21 21 20 18 18 17 16 16 14 14 13 13 11 10 10 11 10 10 9 9 9 9 9 9 8 8 7 8 8 9 10 10 10 12 12 11 11 12 12 12 12 11 11 10 10 11 12 12 12 12 10 9 9 8 8
2 1 1 4 3 1 2 6 7 6 9 10 7 6 5 4 2 1 5 9 8 9 8 11 14 15 16 18 22 26 23 21 23 22 21 20 20 20 20 21 21 21 22 22 21 20 18 18 17 16 15 15 15 14 13 11 11 11 10 10 9 9 10 10 9 9 9 8 8 9 10 10 10 10 10 11 12 11 11 12 11 11 11 10 10 11 11 11 12 12 12 12 11 9 8 8 7
2 3 2 3 2 2 4 6 7 8 9 9 8 7 6 3 1 2 7 9 7 8 9 12 16 18 18 17 20 23 21 20 22 20 19 19 19 19 20 22 22 22 22 21 22 21 19 18 17 16 15 15 15 16 15 12 12 12 11 10 10 10 10 10 9 9 8 8 9 10 10 11 10 9 10 11 11 11 11 11 11 11 11 11 11 12 12 12 13 13 13 13 12 10 8 7 7
1 3 3 2 2 3 5 7 9 8 7 8 9 8 6 3 2 3 7 7 6 7 10 14 17 18 18 18 19 19 19 18 19 19 19 19 19 18 18 19 19 21 21 21 22 21 19 18 17 17 16 16 16 17 15 14 14 13 12 11 11 11 10 9 9 8 7 7 8 9 9 9 8 8 9 10 10 11 11 11 11 11 11 11 12 13 13 13 14 15 15 14 12 10 8 6 6
2 4 3 3 3 3 7 9 9 8 9 10 8 7 5 4 4 2 1 2 4 6 10 14 16 18 20 20 18 16 15 16 17 19 19 20 20 19 20 20 20 22 21 21 22 20 19 18 17 17 17 16 16 17 15 15 15 14 13 12 11 11 10 9 8 7 7 6 7 7 7 7 7 8 9 10 10 10 10 11 11 11 11 12 12 13 14 15 16 16 15 14 12 10 8 7 6
4 4 3 3 3 4 8 10 9 8 10 8 6 7 5 6 6 3 2 2 2 8 11 14 17 19 20 18 15 15 15 16 18 20 21 21 20 21 22 21 22 22 21 21 21 20 20 19 18 17 17 17 17 17 16 16 15 15 14 13 12 11 10 10 8 7 6 6 6 6 6 6 7 8 9 9 9 9 10 11 11 11 11 12 13 14 15 16 16 15 14 12 10 8 7 7 6
6 5 3 3 3 5 9 10 9 7 7 6 7 8 4 4 4 2 2 4 2 12 14 14 16 17 16 15 15 15 14 16 18 20 20 19 19 20 20 21 22 21 21 22 21 21 21 19 18 18 17 17 17 17 17 16 16 16 15 14 12 11 11 10 8 7 6 6 6 6 7 7 7 8 9 9 9 9 10 11 11 12 12 13 13 14 14 14 14 13 11 9 7 6 7 8 7
7 5 3 3 3 6 9 9 10 8 6 6 9 10 4 3 4 1 4 5 4 14 15 15 15 15 14 13 15 14 13 15 18 19 19 19 19 19 19 21 21 22 22 22 22 23 21 20 19 18 17 17 17 17 18 17 16 17 16 14 13 11 11 10 8 7 6 6 5 6 7 8 8 9 10 10 10 10 10 10 11 11 12 13 13 12 12 11 10 9 7 5 5 6 8 8 9
6 6 2 3 4 7 8 8 7 7 6 5 9 10 3 2 4 1 4 6 5 15 15 15 15 14 14 13 13 14 14 16 20 20 18 18 19 20 20 21 22 22 23 23 23 23 22 21 20 19 18 16 17 18 18 17 17 17 16 15 14 12 11 10 9 8 7 6 5 6 8 8 9 9 10 10 10 10 9 9 9 10 11 11 11 10 9 8 7 5 4 3 4 5 7 8 8
4 8 4 3 6 7 6 7 7 5 3 3 9 9 3 4 3 1 2 7 3 16 16 15 16 13 13 13 12 12 13 18 21 20 18 18 20 21 21 22 23 23 24 24 23 23 23 22 21 20 18 17 17 17 17 17 16 16 16 16 15 13 11 11 9 8 8 7 7 8 8 9 10 10 10 10 10 9 9 8 9 9 9 9 8 7 6 5 4 3 2 1 0 2 4 7 7
4 9 6 4 5 5 2 5 8 5 3 5 9 8 3 3 1 3 2 4 1 13 17 16 15 13 12 12 10 10 13 18 20 19 19 20 22 23 23 23 24 23 24 25 23 22 22 22 21 20 19 17 17 17 16 16 15 15 15 17 16 13 12 11 9 9 9 8 8 9 9 10 11 11 10 10 9 9 9 9 8 8 7 7 6 5 5 3 2 1 1 0 0 1 3 5 7
5 6 6 5 2 2 2 3 6 6 6 7 4 3 5 5 5 6 5 5 7 11 15 16 14 13 12 12 10 10 13 16 17 19 21 22 24 25 25 25 24 23 23 23 23 23 22 22 22 21 20 18 17 16 15 15 15 15 15 16 15 14 12 11 9 9 10 11 10 10 10 11 11 11 10 9 9 9 9 9 8 7 7 6 6 5 4 3 1 1 1 1 1 1 2 4 6
6 5 3 3 2 3 3 2 5 6 8 10 2 1 4 5 6 6 4 7 13 12 14 15 12 12 12 11 11 10 12 16 19 21 23 24 26 26 26 26 25 24 23 23 24 24 22 22 21 21 20 19 17 16 15 16 16 15 15 16 15 14 13 12 10 10 11 13 12 11 11 12 11 11 11 10 9 9 9 9 8 7 7 7 6 5 4 2 1 1 1 2 2 2 3 4 5
4 4 0 2 3 1 1 2 6 4 7 12 4 1 4 5 5 7 5 7 14 13 13 14 12 13 13 11 12 10 10 15 20 23 24 26 26 26 27 27 26 25 24 24 24 24 23 22 21 21 20 18 17 16 15 16 16 16 16 15 15 14 14 13 12 10 11 14 14 13 12 13 12 11 11 10 9 9 10 9 8 8 8 7 6 5 4 2 2 1 1 2 3 3 4 4 4
1 2 3 4 3 1 2 1 4 2 4 11 6 2 3 4 6 8 7 8 14 13 12 14 12 12 13 11 10 10 9 11 16 21 24 25 26 26 27 28 28 27 26 25 24 25 24 23 22 21 19 18 17 16 16 16 16 15 15 15 15 14 14 13 12 11 10 13 15 13 13 13 12 12 11 10 9 9 9 9 8 8 8 7 6 4 3 2 1 1 1 2 3 3 4 5 5
2 1 2 2 3 3 0 2 5 3 3 8 7 3 1 3 8 10 8 10 15 14 12 13 12 12 12 10 10 10 10 9 11 18 24 25 25 26 27 28 29 28 28 27 26 25 24 24 23 20 18 17 17 17 17 17 16 15 14 14 14 13 13 12 12 11 10 13 15 13 13 13 12 13 12 11 10 9 9 9 9 9 8 6 5 4 3 2 1 0 1 1 3 3 4 5 5
3 2 3 2 3 3 3 2 7 9 6 6 8 4 1 5 9 8 7 9 13 13 10 8 9 12 12 11 11 10 10 10 11 20 26 26 25 26 27 28 28 27 28 28 27 26 25 24 23 20 18 17 17 17 17 17 17 16 14 13 13 13 12 12 13 11 9 12 14 14 13 13 13 13 13 12 10 10 10 9 9 8 7 5 4 4 3 1 1 1 2 2 2 3 3 4 5
6 3 3 5 3 3 4 2 5 12 8 6 9 6 4 7 7 6 7 8 10 9 7 5 5 8 11 11 10 11 11 9 13 23 26 26 26 27 27 27 28 28 28 28 28 27 25 25 23 20 19 18 17 17 18 18 18 17 16 14 14 14 14 14 14 12 9 12 14 14 14 13 13 13 13 13 12 12 11 10 9 8 6 5 4 3 3 2 2 1 2 3 3 3 3 4 5
3 3 3 4 5 3 5 2 5 11 7 5 8 7 5 8 8 7 7 7 8 10 11 9 6 7 10 11 11 11 11 9 15 24 26 27 27 27 28 27 27 27 27 29 29 28 27 26 24 21 20 19 19 20 20 20 20 19 17 16 16 16 17 16 15 14 11 12 14 14 13 13 13 13 13 13 13 13 12 10 9 8 6 4 3 3 3 3 3 1 1 3 4 4 4 4 5
1 1 2 2 4 4 6 5 9 10 6 4 6 8 7 9 8 6 6 8 10 13 14 11 8 9 10 11 12 11 8 8 13 20 24 26 26 27 27 26 27 27 27 29 30 29 28 26 24 21 21 21 21 22 21 20 19 18 18 18 18 18 18 17 16 15 13 13 13 13 12 13 14 14 14 14 14 13 11 10 9 7 5 4 4 5 4 4 4 3 2 2 3 4 5 4 4
1 1 1 1 4 2 3 3 10 9 4 2 1 5 6 7 8 7 7 9 8 9 11 7 5 9 11 11 12 10 7 8 11 15 20 24 26 27 26 26 28 29 30 31 31 30 29 27 24 22 22 23 23 22 21 20 18 17 16 16 17 18 17 17 15 15 14 13 13 12 12 13 14 14 14 14 14 12 10 9 8 7 6 6 6 6 5 5 5 4 2 2 2 3 4 3 2
1 2 1 3 3 1 2 2 8 7 4 3 1 0 2 5 7 7 6 5 4 4 5 2 1 5 9 9 9 10 9 10 12 13 16 21 25 26 26 26 27 28 29 30 31 31 29 28 26 24 24 23 24 23 20 19 18 18 14 12 16 18 17 17 16 15 15 14 14 13 13 13 14 13 13 13 13 11 10 8 7 6 6 7 7 6 6 6 6 5 3 2 3 4 5 3 1
2 3 4 4 4 3 1 4 6 5 5 8 7 2 2 5 7 6 3 2 4 6 5 4 3 3 3 2 5 8 10 11 13 13 14 18 22 24 26 27 27 27 28 29 31 31 30 29 28 26 24 24 24 22 21 20 20 18 14 13 17 19 18 19 20 18 18 16 15 14 14 13 13 13 12 12 12 11 10 8 7 7 6 6 6 6 7 6 6 5 4 3 4 5 5 5 2
3 3 8 8 5 3 6 9 6 3 2 7 8 3 3 5 8 8 4 3 5 7 9 10 7 4 3 1 3 5 8 11 12 14 15 17 21 23 25 27 27 28 29 31 32 32 31 30 29 27 26 26 24 22 22 22 21 18 16 18 21 22 21 22 23 22 21 18 15 13 13 13 13 13 12 12 12 11 10 9 7 7 7 7 7 7 7 7 6 5 4 3 4 4 5 5 3
2 5 8 9 6 6 11 12 7 3 3 6 7 3 1 3 6 8 8 6 6 6 10 12 8 6 6 4 3 4 6 9 10 13 15 17 21 22 23 26 28 29 30 32 31 31 31 31 30 28 27 26 24 23 23 23 21 19 17 18 21 24 24 24 24 22 19 17 14 12 13 13 13 13 12 12 12 12 11 10 9 9 8 8 8 8 7 7 6 5 4 4 4 4 4 3 2
4 5 6 8 8 9 13 12 7 3 2 3 6 3 1 3 4 7 9 9 9 9 10 11 10 9 9 8 5 5 6 7 7 10 13 16 22 24 25 28 30 30 31 31 31 31 32 32 30 29 27 26 25 24 23 22 21 20 18 17 18 20 21 21 20 18 16 15 13 13 13 13 13 13 13 12 12 12 11 11 10 9 9 8 8 8 7 6 6 6 5 5 4 4 4 3 2
6 5 5 7 8 10 12 10 6 3 4 2 6 3 2 3 3 5 9 9 13 13 12 12 13 12 12 10 8 6 5 6 6 8 12 16 22 26 29 30 31 31 32 32 32 33 33 33 31 30 28 27 26 25 24 23 22 20 19 18 17 17 17 16 16 15 15 14 13 13 13 13 12 11 12 12 12 12 11 10 9 9 9 8 7 7 7 6 6 6 6 6 6 6 5 3 2
6 6 5 4 6 8 9 7 4 2 2 4 8 6 2 3 2 6 8 9 13 13 11 12 12 13 14 12 9 7 5 5 5 6 11 17 23 27 30 31 31 31 33 34 33 33 34 33 32 31 30 28 27 26 25 24 24 21 19 20 18 17 16 15 15 15 15 15 14 13 13 13 12 11 12 12 11 11 10 10 9 9 9 8 7 7 7 6 6 6 6 6 7 7 6 5 4
4 4 4 1 0 3 4 3 3 3 2 6 9 11 6 2 2 7 8 7 10 12 11 11 12 12 14 12 10 8 6 5 5 4 8 16 23 25 26 28 29 30 31 32 32 33 34 34 33 32 31 30 28 27 26 26 26 23 20 20 20 19 18 17 17 17 16 17 16 15 14 13 13 13 13 12 11 11 10 10 10 9 8 8 8 7 7 6 6 6 6 7 8 8 8 7 6
4 2 4 3 2 2 3 3 3 2 5 6 8 11 8 3 4 7 8 4 6 12 13 14 16 14 13 12 12 10 6 5 6 5 5 11 16 19 22 24 26 28 29 30 31 32 33 34 33 33 32 31 29 27 27 27 26 24 21 20 20 21 20 19 18 18 18 18 18 16 14 14 14 14 15 14 13 12 11 10 10 10 9 8 8 8 7 7 7 7 8 8 9 10 9 9 8
5 4 4 5 1 1 2 0 1 3 7 5 7 10 6 6 4 4 7 6 6 10 12 14 16 15 13 13 13 11 7 6 6 6 6 7 11 17 20 22 24 26 28 30 31 32 32 33 33 34 33 32 30 28 28 29 27 25 23 21 20 22 23 21 20 19 19 19 18 17 16 15 15 15 16 15 14 13 11 10 11 12 11 10 9 9 8 8 8 8 9 9 10 10 9 9 8
6 6 5 4 2 2 3 3 1 4 9 6 6 11 4 5 3 2 5 7 7 10 11 13 14 15 14 13 14 13 10 8 6 6 6 6 10 17 21 23 24 26 28 29 30 31 32 32 33 34 33 32 31 29 29 30 28 25 23 21 21 23 24 22 21 20 19 20 19 18 17 16 15 15 16 15 14 13 12 11 11 12 12 12 11 10 10 9 9 9 9 9 9 9 9 8 8
6 5 5 5 4 4 4 4 3 5 6 3 5 8 3 2 2 5 7 6 6 8 8 10 11 12 12 11 12 13 12 10 6 6 7 7 10 17 22 24 25 26 27 28 29 30 31 32 33 33 33 32 31 29 29 31 30 26 23 22 22 22 24 23 21 20 20 21 21 20 19 18 17 16 15 14 13 13 13 12 12 12 12 13 12 11 11 10 10 10 10 9 9 9 9 9 9
3 3 5 4 5 6 3 4 5 4 2 1 3 3 2 3 3 7 5 1 4 6 6 8 9 9 10 10 10 11 11 10 7 6 7 8 11 15 20 24 25 26 27 27 28 30 30 31 33 33 33 33 32 30 30 31 31 27 25 24 23 22 22 22 22 21 21 21 21 21 21 19 18 16 16 15 14 14 14 13 13 12 12 13 13 12 11 11 11 12 11 10 10 10 9 9 8
2 3 4 5 4 7 4 1 1 3 3 1 0 1 4 1 2 7 8 8 7 5 5 7 9 10 10 9 9 10 10 10 9 8 7 9 11 12 15 21 25 25 26 26 28 30 32 32 32 33 32 32 33 31 31 31 31 29 27 26 24 23 23 23 22 21 21 21 21 21 21 20 19 18 17 16 16 15 14 14 14 13 12 13 13 13 12 12 12 12 12 12 11 10 9 8 8
4 3 5 4 1 4 3 1 2 3 2 1 2 1 3 2 1 6 10 10 8 6 6 6 5 7 8 8 8 9 9 10 9 7 6 6 7 8 9 14 21 24 25 26 28 30 31 32 33 33 33 33 34 33 32 32 32 31 29 28 26 25 24 24 23 21 21 22 21 21 22 21 20 19 18 17 17 16 15 15 15 14 14 15 15 14 14 14 13 13 13 13 12 10 10 10 9
5 5 3 3 3 0 1 2 1 1 1 1 2 3 2 1 1 4 8 7 5 6 8 8 6 5 4 3 4 5 5 6 4 5 5 6 8 9 11 14 19 23 24 24 27 29 29 29 29 30 32 34 35 34 34 33 33 32 31 30 29 27 26 25 23 21 22 22 21 21 22 21 20 19 19 18 18 18 17 17 16 16 16 16 16 16 15 15 15 14 14 14 13 12 12 11 10
2 2 2 1 3 3 2 2 3 3 3 3 1 2 2 2 2 2 6 6 6 7 8 8 7 6 5 4 4 4 3 4 6 8 8 7 11 13 13 15 19 22 21 19 22 26 27 26 25 26 27 29 29 30 32 33 33 32 31 30 30 28 27 26 23 22 23 22 21 21 21 21 20 19 19 19 19 19 18 18 18 18 18 18 18 17 16 16 15 15 14 14 14 14 13 12 11
2 2 1 1 0 1 2 1 1 4 4 3 3 1 3 2 0 4 7 8 8 8 8 8 7 8 7 6 6 6 6 6 7 8 7 8 11 10 9 13 19 20 16 14 15 20 25 26 25 25 26 26 27 28 29 30 32 32 31 31 30 30 29 27 24 23 24 23 22 22 21 21 21 20 19 19 20 21 20 19 19 19 20 20 20 19 18 17 16 16 15 15 14 14 14 13 12
3 2 1 3 2 2 2 1 2 2 4 4 5 3 3 1 1 3 6 7 7 8 9 9 9 11 9 8 9 9 8 8 6 7 7 7 10 13 12 15 16 11 9 9 10 15 22 26 26 25 26 27 28 29 30 30 30 30 31 31 30 30 30 29 26 24 24 24 23 23 22 22 22 21 21 20 20 21 21 21 20 19 20 20 20 20 18 18 17 16 15 15 14 14 14 13 13
Wind_Direction
203 148 140 138 124 114 85 28 52 7 24 76 59 295 288 38 105 108 96 117 114 110 87 114 124 123 124 134 139 123 62 133 157 143 185 174 143 148 154 156 157 153 149 148 149 146 139 131 127 127 126 125 124 124 123 121 120 122 120 121 120 120 121 121 123 122 127 126 123 118 114 118 119 122 124 126 123 123 125 123 118 116 117 117 118 119 121 121 118 117 117 114 117 125 121 110 103
156 139 142 132 119 108 348 275 89 42 74 78 353 207 228 62 118 128 154 149 110 100 112 115 111 86 48 117 130 107 45 24 109 119 110 136 135 143 153 156 157 153 150 150 151 148 143 136 133 132 130 129 127 127 126 125 127 129 127 127 126 125 126 124 123 127 133 131 128 123 121 125 126 122 122 128 126 125 130 126 120 119 119 120 120 120 121 119 117 118 115 114 121 127 119 112 110
144 145 144 127 101 56 245 275 94 81 71 93 298 233 186 172 156 146 155 98 78 123 116 105 87 64 29 84 100 87 73 35 107 107 118 141 134 143 155 157 157 155 152 152 153 150 145 139 138 135 133 132 130 131 130 130 131 131 131 131 132 129 124 120 122 129 134 134 134 132 133 129 122 116 117 126 127 131 135 127 124 123 120 120 121 120 118 116 119 120 118 121 127 129 124 123 121
143 147 142 124 70 34 59 28 114 129 77 111 176 191 217 187 161 138 109 118 159 163 120 114 79 352 54 96 95 74 110 103 121 120 133 153 146 149 155 157 157 157 155 154 153 151 147 142 140 137 135 134 134 136 135 133 130 130 132 131 129 124 120 120 126 131 135 138 139 137 134 121 110 111 121 128 130 137 136 130 132 128 121 120 121 122 122 122 124 120 120 127 130 130 128 127 124
147 147 147 118 76 20 26 49 166 126 103 151 143 174 225 189 156 143 112 143 202 308 228 132 98 287 91 99 108 93 120 117 137 139 130 147 149 149 154 157 157 158 157 155 153 151 147 143 140 139 137 139 139 136 132 127 125 126 126 124 121 119 121 124 128 130 136 138 136 132 125 113 107 120 133 133 131 137 135 133 137 132 125 123 123 125 125 126 126 121 121 127 131 129 127 126 124
155 148 161 257 80 236 154 105 254 174 143 181 157 167 198 191 160 126 82 66 329 289 257 131 115 117 82 64 61 89 136 123 140 144 134 143 149 150 154 155 157 158 158 156 155 151 148 146 142 141 141 142 139 133 128 122 121 123 122 122 122 122 123 126 125 124 129 131 129 126 120 113 114 136 143 134 133 137 136 133 134 133 127 124 125 124 124 125 124 122 122 126 130 128 127 127 125
166 145 149 23 332 261 134 151 250 227 261 246 175 158 178 177 151 125 108 91 52 285 234 117 119 106 82 82 74 86 125 125 137 145 142 145 149 151 153 154 156 157 158 158 155 153 150 147 144 144 144 142 136 132 127 121 119 121 124 124 123 122 121 123 120 121 124 127 127 123 119 114 120 152 151 140 140 144 140 133 130 130 126 125 128 125 125 126 124 123 122 124 127 128 129 129 126
180 152 161 70 12 309 221 280 262 214 82 312 295 169 172 157 147 140 153 156 120 148 121 131 124 94 75 81 89 86 100 119 137 141 142 144 148 150 152 155 156 156 159 158 156 155 152 148 147 147 144 142 139 134 127 123 122 127 130 128 125 119 117 118 118 120 122 124 125 124 120 114 121 157 155 140 138 144 142 135 130 129 129 130 132 128 127 127 126 124 122 124 126 128 129 129 128
180 170 211 106 294 359 290 314 335 20 91 125 325 172 156 147 147 136 161 163 125 132 131 152 134 98 104 87 94 83 92 121 133 135 140 144 148 149 153 157 157 157 159 158 157 157 152 149 149 147 146 144 140 132 127 128 131 135 135 130 126 122 120 117 118 120 119 121 119 119 113 110 118 148 155 137 131 139 141 135 133 133 134 135 133 129 129 127 125 124 124 125 125 126 128 129 128
148 170 53 76 83 15 309 318 346 33 61 96 57 132 130 142 153 143 169 141 128 123 119 121 99 112 121 99 88 95 115 128 130 132 140 145 147 149 154 159 160 158 159 159 159 157 149 149 151 149 149 143 137 130 130 134 140 141 136 130 127 126 123 120 120 119 118 122 121 119 111 109 119 139 151 137 129 136 139 137 135 136 136 135 133 128 129 128 125 125 126 125 123 125 127 129 130
71 281 81 65 58 9 249 283 312 93 115 107 77 109 61 54 121 191 127 120 117 110 115 106 105 121 113 93 76 117 129 132 133 136 142 145 148 152 155 159 161 160 160 160 159 154 148 151 152 149 149 144 137 132 133 139 145 141 134 129 129 128 123 122 122 119 118 120 120 122 118 116 122 132 138 132 129 135 138 136 135 136 137 137 134 131 131 129 127 127 125 123 122 124 126 129 133
60 233 103 78 127 198 214 214 271 132 146 169 144 143 40 43 341 132 124 122 120 120 134 129 135 134 105 94 107 126 134 137 139 140 143 147 151 155 158 161 162 163 162 159 157 153 151 153 151 150 151 146 140 138 140 143 145 140 133 130 134 134 126 125 121 117 117 114 112 111 115 118 122 127 130 130 131 135 134 134 135 136 137 138 136 134 132 130 131 128 122 119 120 125 129 130 133
182 189 111 170 196 177 230 236 212 148 156 195 166 132 94 137 347 43 122 128 127 134 153 147 152 133 97 103 120 136 142 144 144 142 146 149 153 157 159 161 162 164 163 160 158 155 154 153 152 154 151 145 141 143 143 144 146 142 137 136 141 140 131 126 119 116 116 113 111 107 107 112 119 125 130 132 128 129 130 133 137 137 138 140 137 135 131 131 133 129 121 118 118 124 133 134 131
187 195 122 212 261 172 231 222 177 161 167 189 166 129 127 124 24 325 125 126 123 146 128 124 139 107 106 132 134 157 151 149 148 145 148 148 152 155 157 160 162 164 163 163 161 158 156 154 156 156 150 146 146 146 145 147 149 145 140 142 144 138 131 125 119 116 116 117 116 110 104 106 113 120 127 128 124 125 129 132 135 135 139 141 137 134 131 131 134 128 121 118 116 123 136 138 131
178 133 107 211 307 303 226 214 188 178 160 160 163 142 121 69 262 358 113 122 108 132 110 124 146 100 146 163 153 170 154 152 149 146 147 146 149 150 154 157 160 163 164 166 164 160 157 157 160 157 154 151 152 150 148 151 148 144 143 144 144 137 131 126 123 120 118 119 117 109 101 103 106 111 119 122 124 127 128 131 134 135 138 138 134 134 134 134 133 129 124 117 112 117 127 130 127
156 105 80 13 289 288 235 213 194 171 153 156 160 144 114 39 271 91 294 187 121 133 109 145 195 120 161 162 144 154 151 149 145 145 144 141 143 143 148 153 157 161 163 168 167 164 162 164 164 160 160 156 155 153 148 152 148 146 147 147 143 137 135 130 129 128 123 120 115 107 103 103 104 106 111 113 118 123 125 127 131 134 136 135 132 134 138 139 138 135 129 119 111 114 118 122 123
95 103 34 320 264 252 240 234 197 144 142 153 158 156 135 142 291 99 261 316 126 135 93 117 131 120 139 134 139 146 147 145 141 142 140 138 140 138 145 150 154 159 165 172 170 168 167 168 167 164 163 158 158 156 149 153 152 148 147 146 142 137 138 135 135 132 123 120 116 111 109 106 105 107 107 107 113 119 122 123 127 133 134 133 131 132 137 142 144 142 137 125 117 116 118 120 123
110 141 238 269 255 200 245 228 111 118 140 153 159 160 144 146 164 165 122 82 116 113 85 88 89 107 120 130 140 144 146 143 140 141 140 142 144 143 148 153 158 164 169 175 173 171 173 173 171 168 165 161 162 158 153 157 154 146 145 148 146 142 142 140 141 134 122 122 121 120 118 111 110 109 108 109 109 113 117 120 123 128 130 130 129 130 137 144 146 146 145 135 124 122 121 119 125
166 164 250 247 220 195 216 112 115 130 145 148 153 151 143 151 155 162 131 124 127 112 112 116 107 112 121 134 142 146 149 145 144 145 146 151 153 153 155 160 165 168 172 175 174 176 179 177 175 173 168 166 167 164 162 163 156 150 149 150 150 148 145 143 142 134 123 121 120 122 122 117 114 110 112 112 109 110 113 116 118 121 125 127 128 132 138 146 148 147 149 146 135 128 125 123 133
181 152 288 253 210 156 110 114 126 142 141 140 146 139 137 164 147 127 137 130 131 131 142 136 129 134 136 143 147 151 155 148 148 149 152 157 159 161 162 166 170 173 176 176 175 179 183 180 178 178 174 171 171 171 170 167 161 156 154 151 153 153 148 145 142 136 126 120 118 120 124 124 122 116 116 116 114 116 116 116 119 122 126 131 135 137 139 146 151 151 153 155 150 140 133 131 141
177 172 230 248 198 110 119 121 121 133 138 138 139 136 142 166 65 128 146 133 141 157 162 150 143 144 145 150 152 157 157 150 151 153 156 159 161 167 169 171 174 176 176 177 179 182 185 184 182 181 178 176 175 176 174 171 166 160 158 155 155 157 154 151 146 141 132 126 125 124 128 131 129 123 122 123 123 125 123 125 130 132 135 139 142 142 143 147 153 156 158 161 159 155 149 146 153
208 219 227 231 183 116 129 126 125 132 130 133 142 145 147 139 62 148 165 152 158 167 162 153 146 146 149 152 154 158 156 152 155 156 160 163 164 168 172 173 175 176 176 179 183 184 186 186 185 185 182 181 180 179 175 173 170 164 162 159 157 159 160 158 153 149 142 141 139 133 135 137 133 130 133 134 133 132 133 136 140 142 143 144 145 145 146 149 153 158 161 164 166 168 168 166 168
230 263 246 202 182 130 131 132 137 140 136 145 151 141 129 127 122 121 181 164 154 153 151 148 145 146 148 149 152 156 156 157 158 160 164 166 168 169 171 174 175 176 178 183 187 186 187 186 186 187 184 182 182 181 175 171 169 168 165 162 163 162 165 168 162 160 159 158 155 149 146 145 143 140 143 142 140 142 142 142 143 147 148 147 149 148 150 153 157 160 164 170 175 180 183 182 180
212 266 264 182 161 137 139 137 145 147 143 148 137 124 124 139 139 91 336 283 140 137 141 143 142 144 147 149 154 157 159 162 162 165 168 170 173 171 172 175 176 177 180 185 188 188 189 188 188 189 185 181 182 181 176 171 169 170 169 166 166 166 170 173 170 175 181 177 170 170 166 161 158 151 151 150 149 152 148 144 145 148 149 150 152 152 155 158 162 167 171 178 185 191 196 196 193
214 243 257 170 145 144 140 135 142 138 129 130 110 103 100 113 104 75 286 291 143 136 138 142 142 144 150 155 156 158 161 164 163 165 169 173 173 172 173 174 175 178 182 186 188 190 191 190 190 192 187 181 181 181 179 175 173 173 173 171 167 170 176 176 177 183 194 191 183 185 181 173 171 163 159 156 155 156 150 144 142 145 147 151 154 156 159 162 167 172 178 187 199 213 218 215 215
220 219 222 160 144 144 140 133 141 137 128 139 118 102 95 98 80 61 285 296 148 138 140 146 147 149 155 159 160 160 162 163 164 167 171 173 172 173 174 173 176 181 185 186 187 189 191 192 192 194 189 181 180 181 181 180 177 176 176 173 171 177 182 183 183 184 193 197 190 193 184 175 176 170 163 159 158 157 153 147 145 146 146 150 153 155 159 164 171 180 195 217 234 241 239 232 231
207 191 173 148 141 139 142 133 132 128 119 124 120 120 129 77 79 117 291 304 152 140 143 151 150 154 160 163 164 163 166 168 167 168 170 170 172 175 174 175 178 182 184 184 187 189 190 193 194 194 191 183 182 184 184 184 183 180 178 176 178 184 188 189 188 183 187 194 191 194 184 174 175 174 167 162 162 160 159 158 156 155 155 156 158 162 167 175 186 202 227 245 251 250 242 230 226
179 161 106 80 111 119 136 127 110 93 93 111 114 114 81 39 35 59 354 330 180 148 147 154 155 159 164 164 166 166 171 172 170 170 170 171 174 175 176 178 179 181 184 184 187 189 190 193 194 196 195 188 187 188 188 189 188 186 182 182 185 188 191 193 191 184 183 188 189 188 184 175 173 174 171 169 169 169 171 172 170 167 167 170 172 178 183 190 198 221 244 251 265 260 242 219 212
155 145 103 70 91 113 144 121 121 119 173 168 119 105 91 83 95 176 138 360 144 154 150 157 161 162 166 166 167 171 174 174 174 176 175 173 175 177 178 181 181 181 184 186 188 190 193 195 194 196 197 195 193 191 192 191 191 189 186 186 188 190 193 193 190 185 183 185 187 184 182 178 176 177 179 181 181 182 185 186 186 182 179 180 181 180 179 182 198 248 254 55 52 281 259 226 213
134 124 110 112 83 181 163 110 141 138 158 176 143 124 147 155 179 187 177 126 136 161 159 159 163 163 167 168 168 175 176 176 179 180 177 175 177 179 181 184 184 183 184 186 188 192 196 196 195 196 199 200 197 195 194 192 191 189 187 188 189 191 193 189 188 190 190 189 189 189 189 189 188 191 195 196 196 194 193 195 195 191 187 181 175 171 170 178 216 272 252 281 296 250 265 250 229
114 91 71 128 164 198 141 140 166 143 155 169 168 49 155 191 195 175 187 155 152 170 169 160 161 163 167 170 170 176 178 179 182 182 180 178 179 181 184 185 186 186 186 187 191 195 197 197 196 196 200 202 200 199 195 191 192 189 189 190 190 194 193 186 187 192 194 195 197 199 203 206 204 205 207 208 207 198 192 193 192 188 186 179 171 170 174 189 225 264 281 282 271 242 260 268 239
107 116 354 202 198 218 19 198 184 161 157 162 153 54 162 207 195 164 190 172 158 171 175 165 162 164 168 170 171 176 180 179 180 183 184 181 180 182 184 185 186 188 188 189 192 194 197 199 197 197 201 202 200 199 194 191 191 190 191 192 193 196 194 191 193 195 198 200 201 203 208 211 207 206 208 210 207 197 188 186 185 184 183 176 172 175 181 195 213 223 260 269 259 258 272 266 236
336 152 183 202 190 238 346 186 204 256 149 165 177 136 146 200 187 173 189 172 163 174 178 171 165 165 170 171 173 178 178 175 177 182 184 183 182 182 183 184 185 188 189 189 190 193 197 198 197 199 201 200 197 193 190 190 188 188 190 193 194 193 192 193 195 198 202 200 198 199 203 203 201 200 202 205 202 196 189 183 181 180 179 176 175 181 188 191 211 229 235 264 266 270 276 262 249
281 82 133 167 151 164 223 152 187 225 185 181 185 157 108 174 174 178 188 174 172 180 180 176 169 167 173 173 175 181 179 175 176 180 182 183 183 182 182 183 184 187 188 188 190 194 197 196 196 200 201 198 194 188 185 186 184 183 186 190 191 188 188 188 190 197 199 195 193 192 194 194 196 198 199 201 201 198 192 185 180 178 178 180 185 191 191 189 214 331 42 315 284 274 273 273 277
156 148 126 109 117 173 230 219 171 178 194 189 181 188 176 155 164 177 186 179 181 181 176 180 176 170 174 175 178 183 183 180 178 179 180 182 182 182 182 183 184 185 186 188 191 195 197 196 195 198 198 196 192 187 183 182 181 181 182 185 187 187 184 182 187 194 191 190 191 190 190 191 195 197 198 199 197 194 189 184 180 178 182 186 193 199 195 201 193 88 24 336 298 288 292 296 302
126 143 133 141 157 206 235 262 164 167 173 187 183 179 177 177 176 185 187 180 176 169 166 197 204 180 176 178 180 183 186 184 179 179 179 180 181 181 182 183 184 184 184 186 189 193 196 195 195 195 194 192 188 186 183 182 182 183 184 186 187 185 181 181 186 190 187 185 187 188 189 194 195 196 198 197 191 186 184 184 184 184 190 195 202 209 216 218 186 154 350 336 322 314 320 313 312
94 104 98 154 179 223 241 228 159 163 166 198 186 150 166 199 197 194 186 173 166 162 175 199 212 194 183 181 182 185 188 180 175 177 177 179 180 180 181 181 183 182 182 183 184 190 193 193 194 192 190 189 185 183 184 183 184 184 187 189 188 182 178 181 185 186 185 180 182 186 189 194 195 193 195 192 186 184 184 188 191 192 194 207 223 231 238 215 188 216 305 339 342 341 341 322 311
349 92 89 181 207 235 246 193 157 168 166 183 180 152 171 202 201 198 184 178 176 172 181 195 202 194 186 184 186 189 184 167 171 175 176 177 177 179 180 178 180 180 180 181 181 186 189 191 192 189 188 189 184 182 184 184 186 188 188 190 190 185 182 184 184 184 182 178 180 183 186 189 188 188 189 186 183 185 190 196 198 198 204 226 239 236 234 211 200 227 276 336 348 351 348 331 314
159 80 85 259 245 246 291 149 151 169 153 61 188 166 174 193 197 199 194 193 184 174 181 185 203 197 189 188 187 186 175 162 171 174 174 176 175 177 178 178 181 182 180 180 181 183 185 189 191 188 188 190 186 184 186 188 190 191 191 193 193 191 190 188 185 181 181 183 183 182 180 181 181 182 183 184 185 188 196 202 203 208 218 233 239 234 228 217 215 228 256 306 334 347 350 352 318
153 130 150 257 239 155 6 147 152 151 131 126 145 129 183 183 194 197 190 188 154 149 171 149 302 210 193 194 188 180 173 167 172 174 173 174 175 175 177 179 181 182 181 180 180 181 183 188 191 189 190 192 189 188 191 192 190 187 186 191 196 198 198 197 196 190 188 188 184 181 178 177 177 179 183 186 191 196 199 204 208 216 223 232 238 236 232 228 225 229 238 274 322 336 350 9 298
245 172 199 240 230 186 155 159 146 106 116 155 139 80 271 189 196 202 168 164 152 141 160 198 250 229 183 198 194 183 173 169 172 173 173 173 175 177 177 180 181 182 182 181 182 182 183 188 190 190 191 192 191 192 195 194 189 184 177 172 183 192 194 195 197 196 196 193 187 184 181 179 179 179 184 191 197 202 204 208 213 218 224 228 232 234 236 236 233 231 230 256 309 327 338 351 326
293 218 213 220 211 164 131 141 143 103 154 181 150 125 269 204 199 205 173 183 181 154 173 202 218 205 187 191 201 195 175 172 173 171 174 173 175 178 177 179 181 182 185 184 185 184 185 188 189 190 191 191 193 196 195 193 191 188 177 166 168 171 175 185 192 193 195 196 192 192 188 185 185 184 189 196 202 208 212 218 221 223 227 225 228 235 237 236 234 232 234 258 298 325 329 337 328
276 242 213 207 186 140 143 151 156 161 190 197 174 150 274 217 204 201 186 191 198 180 185 200 211 197 192 196 199 205 179 170 174 172 173 173 175 176 177 180 181 183 185 186 186 186 187 189 189 190 191 191 193 194 193 192 194 194 190 180 173 170 170 179 189 191 193 195 197 200 196 193 195 196 200 202 207 212 216 223 225 226 228 230 237 242 238 233 233 238 250 268 284 310 317 327 331
237 239 189 185 174 154 164 167 167 170 104 168 193 145 94 240 220 185 182 193 205 206 194 195 209 202 195 199 196 201 185 166 168 173 174 175 176 176 178 181 184 184 184 185 186 186 188 190 190 191 192 193 194 194 194 196 197 197 199 197 188 183 181 182 188 191 193 196 199 200 198 199 202 204 206 207 209 212 217 222 223 225 227 231 238 239 234 234 239 250 263 270 275 292 298 304 331
242 222 169 178 178 172 177 175 175 161 92 172 218 164 108 266 256 158 168 195 211 212 201 194 200 199 197 201 196 194 186 161 157 169 176 178 178 179 180 182 184 183 182 184 186 186 188 190 191 191 193 195 197 198 199 200 200 201 204 204 199 196 196 193 192 195 198 201 203 203 200 201 205 208 210 211 212 214 217 220 220 223 226 227 229 231 234 241 252 262 272 272 272 283 283 280 298
237 198 195 209 189 185 181 174 165 120 123 216 213 186 188 276 241 161 166 203 217 210 202 200 199 195 197 203 201 194 178 160 160 164 176 182 182 182 181 181 182 182 182 184 185 186 187 188 190 191 194 197 198 201 203 202 203 206 209 210 207 203 202 200 198 200 203 205 207 209 208 208 211 212 209 210 213 214 215 219 222 224 225 224 223 228 237 250 261 267 273 271 268 276 276 270 274
212 162 191 220 168 174 161 150 97 98 242 242 202 186 191 277 235 184 181 205 206 195 191 197 198 195 195 199 204 201 180 159 165 162 172 181 183 184 182 181 181 181 183 183 183 185 186 187 189 191 194 197 198 201 203 203 205 210 214 215 215 213 209 204 203 204 205 206 209 212 213 214 216 213 207 206 210 214 216 219 224 227 225 224 223 229 240 252 266 269 266 263 263 271 273 269 267
190 150 139 105 5 26 73 24 41 134 240 242 197 183 184 234 248 205 215 232 182 184 189 190 193 193 192 194 201 206 191 159 166 168 165 171 177 182 183 182 182 180 181 182 183 185 185 187 189 190 194 197 198 199 201 202 206 212 217 220 222 222 217 212 209 211 211 210 212 213 214 216 218 213 207 208 211 215 220 221 224 226 226 226 226 232 241 251 265 265 257 258 265 271 271 266 264
164 165 124 113 14 26 118 295 23 218 248 239 174 164 176 240 252 217 230 236 189 187 192 188 188 187 187 190 195 204 200 168 167 174 171 166 172 179 182 183 182 181 181 182 183 184 185 187 189 191 194 197 198 199 200 202 206 213 218 221 225 225 221 217 215 217 219 219 218 217 217 219 219 214 211 213 214 216 224 228 228 229 229 230 232 236 242 251 263 259 253 259 265 267 267 264 261
164 170 153 140 129 115 178 215 127 216 255 272 161 157 184 266 261 283 257 234 197 186 192 186 182 183 184 185 190 199 202 184 171 177 179 174 175 179 181 183 183 183 184 184 183 184 185 187 190 192 195 197 198 199 200 203 206 213 218 220 224 224 220 219 218 219 222 224 224 223 223 225 223 219 217 217 217 221 230 233 232 233 231 231 235 238 242 249 256 254 254 262 264 264 265 264 261
174 170 147 149 160 154 182 197 166 199 243 289 141 158 196 238 247 295 284 250 193 174 183 177 174 178 175 179 188 195 201 193 171 173 184 182 180 180 181 182 184 186 185 184 184 185 185 187 191 193 195 196 198 200 202 204 207 212 216 217 220 220 219 221 222 223 224 224 225 226 227 229 227 224 224 223 223 228 234 236 236 234 231 230 232 234 239 244 246 246 251 257 258 263 264 261 257
202 151 121 159 185 158 161 185 173 167 157 124 145 179 242 208 275 320 332 54 120 135 148 153 162 168 166 176 187 192 202 199 177 171 185 187 181 180 181 182 184 186 186 186 186 186 187 190 192 194 196 197 198 201 203 205 208 212 214 214 217 218 220 223 224 224 225 225 226 227 228 229 228 227 228 227 230 234 237 237 237 236 232 229 226 229 237 243 243 243 247 252 256 261 261 256 252
206 129 154 211 184 136 135 201 140 99 120 196 245 299 308 313 345 350 22 49 59 84 117 143 158 163 167 179 185 188 198 200 193 178 179 189 182 175 178 182 184 186 187 188 188 189 191 192 194 195 198 198 199 202 204 206 208 212 215 214 216 219 220 222 224 225 225 225 228 229 229 229 228 228 230 230 232 236 239 240 238 235 231 228 226 230 239 244 244 243 246 252 255 258 260 257 255
137 163 200 212 108 94 109 129 17 54 131 279 350 312 313 17 28 346 16 33 34 47 76 103 134 157 172 183 186 191 192 196 199 179 170 179 154 135 147 170 180 183 186 190 191 193 195 196 197 197 198 200 202 203 205 206 209 212 214 214 216 219 220 220 224 228 226 225 229 230 229 230 229 228 230 232 233 234 237 239 238 234 230 229 231 234 241 244 243 243 247 252 252 252 257 258 258
137 169 190 144 138 194 54 136 181 101 153 244 355 328 302 141 227 342 15 23 27 45 66 78 92 123 148 159 163 176 182 181 161 110 84 73 98 128 149 154 166 176 182 189 192 195 197 199 200 200 201 203 204 204 204 205 209 212 214 215 216 218 217 217 222 227 225 224 226 227 226 227 227 228 230 232 232 233 235 237 237 234 231 233 236 237 240 242 242 243 247 250 248 248 254 257 257
73 104 39 71 152 166 158 155 159 141 155 163 103 318 275 212 255 29 46 42 56 66 71 74 77 85 86 84 83 78 88 103 105 103 100 118 145 163 162 153 162 172 175 179 188 195 198 201 203 202 205 206 205 204 205 205 208 211 214 216 218 218 216 217 220 222 223 224 225 224 224 225 225 227 229 231 232 233 235 237 238 237 235 236 239 239 240 240 241 244 245 247 248 247 252 257 256
29 46 65 230 289 149 175 177 100 125 142 150 140 211 266 275 248 100 86 74 72 75 77 74 64 63 63 62 63 61 67 87 116 126 131 155 152 132 130 160 173 174 168 166 179 192 195 199 204 205 206 207 206 206 206 208 208 210 213 215 218 219 217 218 220 221 223 225 225 225 226 227 228 230 230 232 234 235 237 239 240 240 239 239 241 240 239 239 240 243 244 245 247 247 250 255 255
159 127 169 204 182 142 154 241 313 94 127 155 152 176 263 302 119 117 101 90 72 67 74 70 57 54 49 44 55 62 66 74 94 112 120 135 128 123 149 180 182 166 152 159 174 185 190 196 202 205 207 208 209 208 208 210 210 209 212 214 217 219 219 220 222 223 223 224 225 227 229 231 234 235 234 234 237 239 239 240 241 242 241 241 241 239 238 237 238 240 242 243 245 247 249 252 253
Height
780 781 781 783 782 783 784 785 799 802 803 815 812 809 804 796 797 799 802 799 799 798 793 794 793 794 798 802 804 805 806 809 814 822 823 811 806 810 811 814 815 816 817 818 820 821 822 823 824 824 825 825 826 826 826 827 827 827 828 828 828 829 829 829 828 828 828 828 829 829 830 830 830 831 831 832 832 832 832 832 832 833 834 834 835 835 835 836 837 838 839 841 842 840 839 839 840
780 782 781 783 782 785 789 787 805 811 810 821 813 808 803 796 798 801 801 799 799 796 791 792 792 793 795 795 797 802 806 806 806 808 810 807 808 811 812 814 815 817 818 819 820 822 823 824 825 825 826 827 827 827 827 827 828 828 829 829 830 830 830 830 830 829 829 829 830 830 831 831 832 832 833 833 833 833 833 833 834 834 835 835 836 836 837 838 838 839 841 842 844 843 842 842 842
780 782 781 784 783 785 789 790 806 814 816 823 816 806 800 801 801 798 797 795 794 792 792 792 793 796 797 799 800 806 810 807 804 805 807 809 808 810 813 814 816 818 819 820 821 822 824 825 826 827 827 828 828 828 829 829 829 829 830 830 831 831 831 831 831 830 830 830 831 831 832 832 833 834 835 835 834 834 834 835 835 835 836 836 837 837 838 839 839 841 842 842 844 845 845 845 844
781 782 782 783 786 789 792 798 805 811 818 819 816 807 799 801 798 795 793 792 792 790 792 793 798 798 798 805 804 806 811 807 805 804 807 809 808 810 813 815 817 818 820 821 822 824 825 826 827 828 829 829 830 830 830 830 830 830 831 831 831 831 832 832 831 831 831 831 832 832 833 833 835 836 836 835 835 835 835 836 835 836 837 838 838 838 839 840 840 841 843 843 844 846 846 846 847
781 783 783 783 790 793 795 802 804 808 815 812 812 807 799 798 795 794 792 792 791 791 793 793 801 799 796 802 802 807 810 807 806 804 806 808 809 810 813 815 817 819 821 822 823 825 826 827 828 829 830 831 831 831 831 831 831 831 832 832 832 832 832 832 832 832 832 832 832 833 833 835 837 836 835 835 835 835 837 837 836 837 839 839 839 839 840 841 841 842 843 844 844 845 846 847 848
782 783 783 783 788 790 798 807 807 809 806 801 806 803 797 796 794 794 792 791 789 790 792 793 798 799 802 802 799 805 805 805 806 804 805 808 810 811 813 815 817 819 821 823 825 826 827 828 829 830 831 832 832 832 832 832 832 832 833 833 833 833 833 833 833 832 832 832 833 834 835 837 837 835 835 837 836 836 837 838 838 839 840 840 840 841 841 842 842 843 844 844 845 845 846 847 849
782 785 786 788 790 790 803 812 809 809 801 795 798 797 795 795 793 793 795 794 792 791 791 793 792 798 809 804 803 804 801 803 803 804 805 807 811 812 815 816 818 820 822 824 826 827 828 829 830 831 832 832 833 833 833 833 833 833 834 834 834 834 834 834 834 833 833 833 834 834 836 838 838 834 836 838 838 837 838 839 840 840 841 841 841 842 842 843 844 845 845 846 846 846 847 848 849
782 786 787 794 800 798 807 810 807 806 800 794 793 793 792 792 792 794 796 796 797 795 793 794 790 801 811 804 809 807 801 804 803 805 806 808 812 813 816 817 819 821 823 825 826 828 829 830 831 832 833 833 833 834 834 834 834 834 835 835 835 836 835 835 835 835 834 834 834 835 836 839 839 834 835 839 839 839 839 840 841 841 842 842 842 843 843 844 845 845 846 847 848 848 849 849 850
781 786 789 797 805 806 809 809 805 802 799 797 794 792 791 791 791 793 796 796 795 795 795 794 791 804 812 807 812 807 802 806 805 807 807 810 813 814 817 818 820 821 823 825 827 829 830 831 832 833 834 834 835 835 835 835 835 835 835 836 837 837 837 837 836 836 836 835 835 836 837 841 840 835 834 838 840 840 840 841 842 843 844 844 844 844 845 845 846 847 848 848 849 850 850 851 852
783 787 792 799 806 812 814 809 806 802 800 798 796 793 792 792 791 792 794 795 794 796 796 792 793 804 810 812 813 807 806 807 806 810 810 812 814 815 817 819 821 822 824 826 828 829 830 832 833 834 835 835 836 836 836 836 836 836 836 836 837 838 838 838 838 838 837 836 836 837 839 842 842 837 835 838 841 841 840 841 842 843 844 845 845 845 846 847 848 848 849 850 851 851 852 853 854
789 789 791 803 810 815 815 810 807 804 801 798 797 793 792 792 793 793 792 795 794 796 796 794 801 804 807 813 813 808 807 808 808 810 812 814 815 816 818 820 822 823 825 826 828 830 831 833 834 835 835 836 837 837 837 836 836 837 837 836 838 840 839 839 839 839 838 838 838 838 840 843 844 840 837 839 842 842 841 842 843 844 845 846 847 847 848 849 850 850 851 852 853 854 854 855 856
794 794 794 808 813 812 809 810 808 803 803 800 798 793 791 792 795 796 793 796 795 798 797 795 800 799 808 816 812 809 808 810 811 811 814 815 816 818 819 821 823 825 826 828 829 831 832 833 834 835 836 837 837 838 837 837 837 837 838 838 840 841 840 840 840 840 840 839 839 839 840 843 845 844 841 840 843 844 843 843 844 845 846 848 848 849 849 850 851 852 853 854 854 855 856 857 857
793 795 798 808 806 806 806 807 805 803 805 799 795 791 789 793 796 796 794 796 796 800 797 792 794 794 808 816 811 811 810 812 812 813 815 816 818 819 820 822 824 826 827 829 830 831 833 834 835 836 836 837 838 838 838 839 839 839 840 840 841 842 841 842 841 841 841 841 841 840 840 842 845 846 846 843 844 845 845 845 846 847 848 849 850 850 851 852 853 854 855 855 856 857 857 858 858
789 790 797 805 802 803 804 804 803 804 806 797 792 790 788 792 794 793 794 798 799 797 793 789 789 795 809 814 815 813 810 812 813 815 816 817 819 819 821 822 824 826 828 830 831 832 833 834 835 836 837 838 838 839 840 840 840 841 841 841 842 842 842 843 842 842 842 842 842 842 842 842 843 845 847 847 846 846 846 847 848 849 850 850 851 852 853 854 855 855 856 857 857 858 858 859 859
785 787 794 804 804 804 801 801 800 803 805 796 792 790 789 791 791 792 793 798 798 789 788 790 789 797 807 809 813 810 807 811 813 816 817 818 820 821 822 823 826 827 829 830 831 833 833 835 835 836 837 838 839 839 840 841 842 843 843 843 843 843 843 844 844 844 843 844 843 843 843 843 843 845 847 848 848 848 847 849 850 851 851 852 853 854 855 855 856 857 858 858 859 859 860 860 861
781 786 796 804 806 805 800 797 797 802 802 795 792 789 793 793 789 792 791 791 795 788 788 794 791 794 802 803 805 804 806 811 812 816 818 820 821 822 824 825 827 828 830 831 832 833 834 835 836 837 838 838 840 840 841 842 843 844 844 844 844 844 844 844 845 845 845 845 845 844 845 845 845 846 847 849 849 849 849 850 851 852 853 854 854 855 856 857 857 858 859 859 860 860 861 861 862
780 788 800 805 804 804 798 795 797 800 799 794 792 789 794 797 790 790 787 787 793 792 791 794 791 792 798 801 803 804 808 810 812 816 818 821 822 823 825 826 828 829 831 831 832 834 834 836 836 837 838 839 840 840 842 843 844 844 844 844 844 845 845 845 846 846 846 846 846 846 846 847 847 847 848 849 850 850 851 852 853 854 854 855 856 857 857 858 859 860 860 861 861 862 862 863 863
785 794 802 803 801 798 792 791 791 793 795 794 792 789 792 797 794 789 789 793 794 796 796 795 794 794 798 801 804 807 809 811 813 816 818 821 822 824 825 826 828 829 830 832 833 834 834 836 836 838 839 840 841 841 842 843 844 844 844 845 844 845 845 846 846 847 847 847 847 848 848 848 848 849 849 850 851 851 852 853 854 855 855 856 857 858 859 859 860 861 862 862 863 864 864 864 865
787 796 801 799 794 789 784 785 787 788 792 793 791 790 791 795 794 790 795 801 798 801 803 799 801 801 801 803 806 809 810 813 814 816 818 820 822 823 825 827 828 829 830 831 833 834 835 836 837 838 839 840 841 842 843 843 844 844 845 845 845 846 846 847 847 848 848 849 849 849 850 850 850 851 851 852 852 853 853 854 855 856 857 858 859 859 860 861 862 863 863 864 864 865 866 866 866
786 792 800 793 785 784 782 783 786 786 787 791 792 790 792 794 792 791 797 802 801 805 805 802 805 805 804 805 806 809 811 814 816 817 819 820 822 823 824 826 827 828 829 831 832 834 835 836 837 838 839 840 841 842 843 843 844 845 845 846 846 846 847 847 848 849 849 850 850 850 851 851 852 852 853 853 853 854 855 856 856 857 858 859 860 861 862 862 863 864 865 865 866 866 867 867 867
785 788 794 786 780 785 782 781 783 783 784 788 792 793 796 793 790 793 797 803 806 804 800 799 802 802 804 805 806 809 811 813 816 818 820 821 823 824 825 826 827 828 829 831 832 834 835 836 837 838 840 841 842 842 843 844 844 846 846 847 847 847 848 848 849 850 850 851 851 852 852 853 853 854 854 854 855 856 856 857 857 858 859 860 861 862 863 864 864 865 866 866 867 867 868 868 868
784 784 783 780 779 784 782 779 782 783 784 788 792 795 795 792 792 794 796 802 804 798 795 794 796 798 801 803 806 808 810 813 816 819 821 822 823 825 826 827 828 829 830 832 832 834 835 836 837 838 840 841 842 843 843 844 845 846 847 847 848 848 849 849 850 851 851 852 852 853 853 854 854 855 856 856 856 857 857 858 859 860 860 861 862 863 864 865 866 866 867 867 868 868 869 869 869
784 782 776 777 777 780 779 778 781 782 786 791 792 792 791 795 797 795 796 798 796 791 791 792 793 796 800 803 806 809 811 813 815 818 820 822 823 824 826 827 828 830 831 831 832 834 835 836 838 839 840 841 842 843 844 845 846 847 848 848 849 849 850 850 851 852 852 853 853 854 854 855 855 856 857 857 858 858 859 860 860 861 862 863 864 865 866 866 867 867 868 869 869 869 870 870 870
783 783 776 775 774 777 777 777 780 781 786 789 787 790 794 799 799 798 798 795 791 789 790 792 795 798 801 804 806 809 811 813 815 818 820 821 823 824 825 827 828 830 831 832 833 834 835 836 837 839 840 841 842 844 844 845 846 847 848 849 850 850 851 852 852 853 853 854 854 855 855 856 857 857 858 858 859 860 861 861 862 863 863 864 865 866 867 868 869 869 870 870 870 871 871 871 871
782 782 775 773 774 775 775 776 780 782 785 786 787 795 799 798 798 801 800 795 791 790 792 794 797 800 803 806 807 809 812 814 816 818 820 822 824 825 826 827 829 830 831 832 833 834 835 836 837 839 840 841 843 844 845 846 847 848 849 850 850 851 852 852 853 854 854 855 855 856 856 857 858 858 859 859 860 861 862 863 863 864 865 866 867 868 868 869 870 870 871 871 872 872 872 872 872
778 777 774 774 775 775 776 778 781 783 785 786 791 800 800 795 796 802 801 796 793 791 794 797 799 803 806 807 808 809 811 813 815 817 820 822 824 826 826 828 829 830 831 832 833 834 835 836 837 838 840 841 843 844 845 846 847 848 849 850 851 852 853 853 854 854 855 855 856 856 857 858 859 860 860 861 861 862 863 864 865 865 866 867 868 869 870 870 871 872 872 872 872 872 872 872 872
770 772 773 774 775 775 777 780 781 783 787 788 795 803 801 795 799 807 803 796 794 794 798 800 801 806 807 808 809 809 812 813 815 817 819 821 823 825 826 827 829 829 831 832 833 834 835 836 837 838 840 842 843 844 845 846 847 848 850 851 852 852 853 854 854 855 855 856 856 857 858 859 860 861 861 862 862 863 864 865 866 867 867 868 869 870 870 871 872 872 872 872 872 872 872 872 872
766 770 776 777 776 778 779 782 785 788 793 791 794 803 803 801 806 811 805 799 797 797 801 802 804 807 808 809 810 810 812 813 815 816 818 820 822 824 826 827 828 829 830 831 833 834 835 836 837 838 840 841 843 844 845 846 847 849 850 851 852 853 854 854 855 855 856 857 857 858 859 860 861 862 863 863 864 864 865 866 867 868 869 869 870 870 871 871 871 872 872 872 872 872 872 872 872
766 769 782 786 780 784 784 784 787 791 796 791 790 806 812 811 812 807 801 800 799 799 802 804 805 807 808 810 811 811 812 813 815 816 817 818 821 823 824 826 827 829 830 831 833 834 835 836 837 838 839 841 842 844 845 846 847 849 850 851 852 853 854 854 855 856 857 857 858 859 859 860 861 862 863 864 865 866 866 867 868 868 869 870 870 871 871 872 872 872 872 872 872 872 872 872 872
771 773 783 792 794 795 788 787 789 789 794 789 791 813 820 814 809 802 797 797 801 804 804 804 806 807 808 810 811 812 812 813 814 815 816 817 820 822 823 825 827 828 830 831 833 833 835 837 838 838 839 841 842 844 845 846 848 849 850 851 853 853 854 855 855 856 857 858 859 859 860 861 862 863 864 865 866 866 867 867 868 869 870 870 871 871 872 872 872 872 872 873 873 873 872 872 872
777 783 786 795 805 802 788 789 792 792 793 788 794 816 820 810 806 802 799 797 800 805 804 803 805 806 808 809 810 812 811 812 813 814 816 816 818 820 822 824 826 828 829 831 832 833 835 836 838 839 839 840 842 843 845 846 848 849 850 851 853 854 854 855 855 856 857 858 859 860 861 861 862 863 864 865 866 867 867 868 869 870 870 871 871 872 872 872 873 873 873 873 873 873 873 873 873
781 792 801 800 803 802 791 789 791 793 792 787 798 817 819 809 804 801 799 799 799 803 804 803 805 806 807 808 809 811 811 811 812 814 815 816 817 819 821 823 825 827 828 830 832 833 835 836 838 839 839 840 842 843 845 846 848 849 850 851 853 854 854 855 856 856 857 858 859 860 861 862 862 863 864 865 866 867 868 869 869 870 871 871 872 872 873 873 873 873 873 873 873 873 873 873 874
785 793 805 803 802 806 799 791 788 789 792 792 799 814 818 810 802 799 798 799 800 802 803 802 804 805 806 807 808 809 810 811 812 813 814 815 817 818 820 822 824 826 827 830 831 833 834 836 837 838 839 840 841 843 845 846 848 849 850 851 853 854 854 855 856 856 857 858 859 860 861 862 863 863 864 865 866 867 868 869 870 871 871 872 872 872 873 873 873 873 873 873 874 874 874 874 874
792 792 799 800 801 807 805 797 789 787 793 797 799 806 811 807 802 800 799 799 801 802 802 802 802 804 804 805 807 808 809 811 811 811 813 814 816 817 819 821 823 825 827 829 830 832 834 835 837 838 839 841 842 843 844 846 848 849 850 851 853 854 855 855 856 856 857 858 859 860 861 862 863 864 865 865 866 867 868 869 870 871 872 872 872 873 873 873 874 874 874 874 874 874 874 874 874
793 793 796 800 801 805 804 796 787 787 793 798 802 807 807 805 804 803 801 799 800 802 802 803 802 803 804 804 806 807 808 809 809 809 811 813 815 817 818 820 822 824 826 828 830 832 833 835 837 838 840 840 842 843 844 846 847 849 850 851 853 854 855 856 856 857 857 858 859 860 861 862 863 864 865 866 867 868 868 869 870 871 872 872 873 873 873 874 874 874 874 874 874 875 875 874 874
788 788 790 798 801 801 796 788 782 783 794 799 801 806 806 807 808 805 803 799 800 804 804 805 804 803 803 803 804 805 806 807 806 807 810 812 814 816 818 819 822 824 825 827 829 831 833 834 836 838 839 840 842 843 844 846 847 849 850 851 852 854 855 856 856 857 858 858 859 860 862 862 863 864 865 866 867 868 869 870 871 871 872 872 873 873 874 874 874 875 875 875 875 875 875 875 875
784 786 789 793 796 796 788 784 782 780 794 801 797 803 807 806 807 804 802 801 802 805 806 805 804 804 803 802 803 804 804 805 804 806 809 811 813 815 817 819 821 824 825 826 828 830 832 833 835 837 839 840 841 842 843 845 846 848 849 851 852 853 855 856 857 858 858 859 860 861 862 863 863 864 865 867 867 869 870 870 871 872 872 873 873 874 874 874 874 875 875 875 875 875 875 875 875
783 786 790 792 793 790 782 781 782 778 791 801 795 803 809 803 804 803 801 803 802 802 804 805 804 803 802 801 802 802 802 803 803 805 807 809 812 814 816 818 820 822 824 825 827 829 831 832 834 836 838 839 840 842 843 844 845 847 848 850 851 853 854 855 857 858 858 859 860 861 862 863 864 865 866 867 868 869 870 871 871 872 873 873 874 874 874 874 874 875 875 875 875 875 875 875 875
784 786 789 793 789 786 783 781 782 780 792 805 802 806 810 802 801 803 801 802 802 800 801 803 804 802 801 801 801 801 802 803 803 804 806 808 811 813 816 817 819 820 822 824 825 827 830 831 833 835 837 838 840 841 842 844 845 847 848 850 851 853 854 855 856 857 859 860 861 862 862 863 864 865 866 867 868 869 870 871 871 872 873 873 874 874 874 874 875 875 875 875 875 876 876 875 876
785 787 790 792 786 788 794 789 785 783 792 805 806 810 813 805 803 803 801 801 802 802 802 803 803 802 800 799 799 800 802 803 803 803 804 807 810 812 814 816 818 820 821 823 824 826 828 830 832 834 836 838 839 841 842 844 845 847 848 849 850 852 853 855 857 858 859 860 861 862 863 863 864 865 866 867 868 869 870 870 871 872 873 873 874 874 874 875 875 875 875 876 876 876 876 876 876
786 785 788 788 783 785 791 790 786 789 797 798 803 820 820 808 808 806 802 803 804 804 804 804 803 801 800 799 799 798 799 800 802 803 803 805 808 810 812 814 816 819 820 821 823 825 827 829 831 833 835 837 839 841 842 844 845 847 848 849 850 852 853 855 856 858 859 860 861 862 862 863 864 865 866 867 868 869 869 870 871 872 872 873 873 874 874 875 875 875 875 876 876 876 876 876 876
789 783 779 780 780 783 787 789 791 804 815 800 799 825 826 808 807 807 804 806 807 806 805 804 804 801 800 800 800 798 796 797 798 799 801 803 806 809 811 813 815 817 818 819 822 823 825 828 830 832 834 836 838 840 842 843 845 846 846 848 849 850 852 854 855 856 857 859 860 861 862 863 864 865 866 867 868 868 869 870 871 871 872 873 873 874 874 875 875 875 875 876 876 876 876 876 876
794 780 770 773 777 783 788 789 795 811 815 796 791 814 823 813 808 803 802 807 808 808 807 805 804 801 799 799 800 798 797 796 796 797 798 801 804 807 809 812 813 815 817 818 821 823 824 826 829 831 833 835 838 839 841 843 844 845 846 847 848 849 850 852 854 855 856 857 858 860 861 862 863 865 866 867 867 868 869 870 870 871 872 872 873 873 874 874 875 875 876 876 876 876 876 876 876
791 771 765 773 776 783 786 785 794 799 799 797 792 800 814 816 807 798 799 806 808 807 807 806 804 801 798 797 798 797 796 795 796 797 798 799 802 804 807 810 811 813 815 818 820 822 823 825 828 830 832 835 837 839 840 842 843 844 845 846 847 848 849 851 853 854 855 857 858 859 860 862 863 864 865 866 867 868 868 869 870 871 871 872 872 873 873 874 874 875 875 876 876 876 877 877 877
779 764 764 769 772 779 780 783 792 789 796 812 804 798 812 816 804 797 799 807 808 804 803 802 801 798 795 795 796 795 794 794 795 796 797 798 800 802 804 807 810 812 814 816 818 820 822 824 826 829 831 833 836 838 839 841 842 843 844 845 846 847 849 850 852 853 854 855 857 858 859 861 862 863 864 865 866 866 867 868 869 870 871 871 872 872 873 873 874 874 875 875 876 876 876 877 877
766 762 765 765 769 775 777 786 792 791 804 816 806 800 812 815 808 804 805 808 804 797 796 796 795 794 793 792 794 794 793 792 794 795 796 797 799 801 803 805 808 810 812 814 817 819 821 823 825 827 829 832 834 836 838 840 841 842 843 844 845 846 848 850 851 852 853 854 856 857 858 859 861 862 862 863 864 865 866 867 868 869 870 870 871 871 872 873 873 874 874 875 875 876 876 877 877
759 763 768 771 775 775 780 785 788 803 816 808 796 795 805 813 809 802 799 792 787 787 791 792 790 791 791 790 791 793 792 791 793 794 795 796 798 801 803 805 807 809 811 814 816 818 820 822 824 826 828 830 832 835 837 838 840 841 842 843 844 845 847 848 850 851 852 853 855 856 857 859 860 861 862 862 864 865 866 867 867 868 869 870 870 871 872 872 873 873 874 874 875 875 876 876 877
762 767 771 780 787 785 793 797 797 820 824 799 787 788 802 814 803 791 786 776 774 780 784 786 786 788 789 788 789 791 791 791 792 794 795 796 798 801 803 805 806 808 811 813 814 816 818 820 823 825 827 829 831 833 835 837 839 840 841 843 844 845 846 847 848 849 851 852 853 855 856 857 859 860 861 862 863 864 865 866 867 867 868 869 869 870 871 872 872 873 873 874 874 875 875 876 876
767 771 775 790 804 805 814 819 820 828 813 787 782 788 803 808 788 780 781 774 773 775 774 778 781 784 786 786 787 789 789 791 791 793 794 795 797 799 801 803 806 807 809 811 813 815 817 819 821 823 825 827 830 832 834 836 837 839 840 842 843 844 844 845 847 848 849 850 852 853 854 856 857 858 859 860 861 863 864 865 866 866 867 868 869 870 870 871 871 872 873 873 873 874 874 875 875
769 772 778 793 809 819 825 825 827 827 804 781 779 789 803 798 779 778 778 771 769 768 769 772 774 779 782 783 784 786 788 790 791 792 793 794 795 796 799 801 803 806 808 810 812 813 816 818 820 822 824 826 829 831 833 834 836 838 839 841 842 843 844 844 846 847 848 849 850 852 853 854 855 856 857 858 860 861 863 864 865 865 866 867 868 869 870 870 871 871 872 872 873 873 874 874 874
765 763 769 782 792 805 815 813 814 816 804 790 786 794 805 796 782 777 771 766 765 764 767 769 771 776 778 781 783 784 786 788 789 792 792 793 794 795 797 799 802 804 807 809 811 813 814 816 818 820 823 825 827 830 831 833 835 837 838 840 841 842 843 844 845 846 847 848 850 851 852 853 854 855 856 858 859 861 862 863 864 865 865 866 867 868 869 869 870 871 871 872 872 873 873 873 874
765 759 765 775 772 777 790 791 790 794 801 803 800 802 802 789 779 773 767 766 765 766 769 771 774 776 778 782 783 784 785 786 788 791 792 792 793 795 796 798 800 803 806 808 810 811 813 815 817 819 821 824 826 828 830 832 834 836 837 839 841 842 843 844 845 846 847 848 850 851 852 853 854 855 856 857 859 860 861 862 863 864 865 866 866 867 868 869 869 870 870 871 871 872 872 873 873
765 765 767 765 756 760 776 784 783 787 801 810 807 806 800 788 783 778 772 773 772 772 773 775 777 777 779 782 782 783 785 784 786 789 791 792 793 795 797 797 800 802 804 807 809 810 812 813 815 818 820 822 824 827 828 831 833 835 836 838 840 841 842 843 844 846 847 848 850 851 851 853 854 855 856 857 858 859 860 861 862 863 864 865 866 866 867 868 869 869 870 870 871 871 872 872 872
760 766 760 755 757 759 768 784 792 797 812 817 811 812 809 803 800 791 785 787 785 781 778 778 780 780 781 782 781 782 782 782 785 787 790 792 794 797 798 798 799 801 804 806 808 810 811 813 815 816 819 820 822 824 826 829 831 832 835 836 838 840 841 843 844 845 847 848 849 850 851 852 853 854 855 856 858 858 859 860 861 862 863 864 865 865 866 867 868 868 869 869 870 870 871 871 872
746 752 748 754 772 775 773 786 795 804 824 828 817 815 813 811 811 804 799 799 794 788 783 782 783 783 783 783 782 783 783 784 788 791 795 797 798 799 798 798 799 801 803 805 807 809 811 813 815 816 818 819 820 822 824 826 829 831 833 834 836 838 840 841 843 844 846 847 848 849 850 852 852 854 855 855 857 857 858 859 860 861 862 863 864 864 865 866 867 867 868 868 869 869 870 870 871
741 746 749 754 766 771 773 780 784 795 821 832 825 821 816 812 811 808 804 801 796 793 790 787 787 785 785 785 785 785 786 788 791 793 796 797 797 798 797 799 800 801 803 805 807 809 811 814 815 816 818 819 821 823 824 825 827 829 832 833 835 837 838 840 842 843 844 845 847 848 849 851 852 853 854 854 855 856 857 858 859 860 860 861 862 863 864 865 865 866 866 867 868 868 869 869 870
754 758 760 759 760 764 769 774 776 785 808 825 829 828 819 808 805 804 801 799 795 793 792 791 790 788 788 788 788 788 788 789 791 792 793 793 795 799 801 801 801 802 804 806 808 809 810 812 814 815 817 818 820 822 823 825 826 828 831 832 834 836 837 839 840 842 843 844 845 846 848 850 851 852 853 853 854 855 856 857 858 858 859 860 861 861 862 863 864 864 865 866 866 867 867 868 869
760 762 761 761 761 766 777 785 782 783 795 808 817 824 820 807 800 799 798 797 794 793 793 794 793 792 793 793 792 791 791 791 792 792 793 794 796 800 802 800 801 804 806 807 808 809 809 810 812 814 815 816 818 820 821 824 825 827 829 830 832 834 836 838 839 840 841 842 844 845 846 848 849 850 852 852 853 854 855 856 856 857 858 858 859 860 861 861 862 863 863 864 865 865 866 866 867